Location: Kaarina
(60.4167°N, 22.4167°E)
Time: 04:01:22
(UTC+03:00)

Cosmos 2074 Rocket - Pass Details

Date: 24 August 2019
Orbit: 967 x 986 km, 82.9° (Epoch: 19 September)

Event Time Altitude Azimuth Distance (km) Brightness Sun altitude
Rises 22:50:22 0° 346° (NNW) 3,711 8.3 -11.7°
Reaches altitude 10° 22:52:53 10° 346° (NNW) 2,759 7.5 -11.9°
Maximum altitude 22:59:14 88° 261° (W) 994 4.1 -12.4°
Enters shadow 23:04:55 13° 170° (S) 2,506 5.6 -12.8°
